{"data":{"norad_id":64270,"intl_designator":"2025-120Q","name":"STARLINK-34219","alt_names":[],"object_type":"PAYLOAD","status":"ACTIVE","operator":null,"country":"US","launch_date":"2025-06-04","launch_site_code":"AFWTR","launch_vehicle":null,"mission":null,"orbit_class":"UNKNOWN","rcs_meters":null,"size_class":null,"mass_kg":null,"dimensions":null,"purposes":["comms"],"wikipedia_slug":null,"has_3d_model":false,"image_url":null,"decayed_at":null,"tle_current":{"epoch":"2026-05-25T02:49:24.587616Z","epoch_age_seconds":64894,"freshness":"FRESH","line1":"1 64270U 25120Q   26145.11764569  .00013688  00000+0  47331-3 0  9992","line2":"2 64270  53.1602 121.9654 0001242 117.1255 242.9872 15.30208398 55617","mean_motion":15.30208398,"eccentricity":0.0001242,"inclination_deg":53.1602,"raan_deg":121.9654,"arg_perigee_deg":117.1255,"mean_anomaly_deg":242.9872,"bstar":0.00047331,"rev_number":5561,"period_min":94.104829243004,"perigee_km":474.33881140702,"apogee_km":476.04117783248,"semimajor_km":6853.3269946198,"source":"CELESTRAK","updated_at":"2026-05-25T13:38:20.360126Z"}}}